Location: Barrio de Canyet
(41.4665°N, 2.2381°E)
Time: 20:30:10
(UTC+00:00)

Meteor 1-21 Rocket - Pass Details

Date: 09 April 2020
Orbit: 833 x 907 km, 81.2° (Epoch: 31 May)

Event Time Altitude Azimuth Distance (km) Brightness Sun altitude
Rises 18:53:48 0° 349° (N) 3,391 7.7 -6.0°
Reaches altitude 10° 18:56:13 10° 349° (NNW) 2,451 7.0 -6.4°
Maximum altitude 19:01:46 83° 262° (W) 847 4.3 -7.4°
Drops below altitude 10° 19:07:18 10° 175° (S) 2,448 6.4 -8.4°
Sets 19:09:42 0° 175° (S) 3,386 7.1 -8.8°
